Time,TemperatureF,DewpointF,PressureIn,WindDirection,WindDirectionDegrees,WindSpeedMPH,WindSpeedGustMPH,Humidity,HourlyPrecipIn,Conditions,Clouds,dailyrainin,SoftwareType,DateUTC
2012-07-14 00:00:00,78.6,68.8,29.97,North,349,0.0,0.0,72,0.00,,,0.16,VWS V13.01,2012-07-14 05:00:00,
2012-07-14 00:05:00,78.6,69.6,29.97,North,349,0.0,0.0,74,0.00,,,0.00,VWS V13.01,2012-07-14 05:05:00,
2012-07-14 00:10:00,78.6,69.6,29.97,North,349,0.0,0.0,74,0.00,,,0.00,VWS V13.01,2012-07-14 05:10:00,
2012-07-14 00:15:00,78.6,69.6,29.97,North,349,0.0,0.0,74,0.00,,,0.00,VWS V13.01,2012-07-14 05:15:00,
2012-07-14 00:20:00,78.7,69.8,29.97,North,349,0.0,0.0,74,0.00,,,0.00,VWS V13.01,2012-07-14 05:20:00,
2012-07-14 00:25:00,78.9,69.9,29.97,North,349,0.0,0.0,74,0.00,,,0.00,VWS V13.01,2012-07-14 05:25:00,
2012-07-14 00:30:00,78.9,69.9,29.97,North,349,0.0,0.0,74,0.00,,,0.00,VWS V13.01,2012-07-14 05:30:00,
2012-07-14 00:35:00,78.7,69.8,29.97,NNW,339,0.0,0.0,74,0.00,,,0.00,VWS V13.01,2012-07-14 05:35:00,
2012-07-14 00:40:00,78.7,69.8,29.97,NNW,339,0.0,0.0,74,0.00,,,0.00,VWS V13.01,2012-07-14 05:40:00,
2012-07-14 00:45:00,78.6,69.6,29.97,NNW,339,0.0,0.0,74,0.00,,,0.00,VWS V13.01,2012-07-14 05:45:00,
2012-07-14 00:50:00,78.4,69.4,29.97,NNW,339,0.0,0.0,74,0.00,,,0.00,VWS V13.01,2012-07-14 05:50:00,
2012-07-14 00:55:00,78.4,69.8,29.97,NNW,339,0.0,0.0,75,0.00,,,0.00,VWS V13.01,2012-07-14 05:55:00,
2012-07-14 01:00:00,78.2,70.0,29.97,NNW,339,0.0,0.0,76,0.00,,,0.00,VWS V13.01,2012-07-14 06:00:00,
2012-07-14 01:05:00,78.0,70.2,29.97,NNW,339,0.0,0.0,77,0.00,,,0.00,VWS V13.01,2012-07-14 06:05:00,
2012-07-14 01:10:00,77.7,70.3,29.97,NNW,339,0.0,0.0,78,0.00,,,0.00,VWS V13.01,2012-07-14 06:10:00,
2012-07-14 01:15:00,77.3,69.9,29.97,NNW,339,0.0,0.0,78,0.00,,,0.00,VWS V13.01,2012-07-14 06:15:00,
2012-07-14 01:20:00,77.3,70.3,29.97,NNW,339,0.0,0.0,79,0.00,,,0.00,VWS V13.01,2012-07-14 06:20:00,
2012-07-14 01:25:00,77.3,70.7,29.97,NNW,339,0.0,0.0,80,0.00,,,0.00,VWS V13.01,2012-07-14 06:25:00,
2012-07-14 01:30:00,77.3,71.0,29.97,NNW,339,0.0,0.0,81,0.00,,,0.00,VWS V13.01,2012-07-14 06:30:00,
2012-07-14 01:35:00,77.3,70.7,29.97,NNW,339,0.0,0.0,80,0.00,,,0.00,VWS V13.01,2012-07-14 06:35:00,
2012-07-14 01:40:00,77.1,70.8,29.97,NNW,339,0.0,0.0,81,0.00,,,0.00,VWS V13.01,2012-07-14 06:40:00,
2012-07-14 01:45:00,76.8,70.5,29.97,NNW,339,0.0,0.0,81,0.00,,,0.00,VWS V13.01,2012-07-14 06:45:00,
2012-07-14 01:50:00,76.6,71.4,29.97,NNW,339,0.0,0.0,84,0.00,,,0.00,VWS V13.01,2012-07-14 06:50:00,
2012-07-14 01:55:00,76.4,71.2,29.97,NNW,346,0.0,0.0,84,0.00,,,0.00,VWS V13.01,2012-07-14 06:55:00,
2012-07-14 02:00:00,76.0,71.2,29.97,NNW,346,0.0,0.0,85,0.00,,,0.00,VWS V13.01,2012-07-14 07:00:00,
2012-07-14 02:05:00,75.9,71.7,29.97,NNW,346,0.0,0.0,87,0.00,,,0.00,VWS V13.01,2012-07-14 07:05:00,
2012-07-14 02:10:00,75.9,72.1,29.97,NNW,346,0.0,0.0,88,0.00,,,0.00,VWS V13.01,2012-07-14 07:10:00,
2012-07-14 02:15:00,75.9,72.1,29.97,NNW,346,0.0,0.0,88,0.00,,,0.00,VWS V13.01,2012-07-14 07:15:00,
2012-07-14 02:20:00,75.9,72.4,29.97,NNW,346,0.0,0.0,89,0.00,,,0.00,VWS V13.01,2012-07-14 07:20:00,
2012-07-14 02:25:00,75.9,72.4,29.97,NNW,346,0.0,0.0,89,0.00,,,0.00,VWS V13.01,2012-07-14 07:25:00,
2012-07-14 02:30:00,75.9,72.7,29.97,NNW,348,0.0,0.0,90,0.00,,,0.00,VWS V13.01,2012-07-14 07:30:00,
2012-07-14 02:35:00,75.9,72.4,29.97,NNW,348,0.0,0.0,89,0.00,,,0.00,VWS V13.01,2012-07-14 07:35:00,
2012-07-14 02:40:00,75.7,71.9,29.97,NNW,348,0.0,0.0,88,0.00,,,0.00,VWS V13.01,2012-07-14 07:40:00,
2012-07-14 02:45:00,75.5,72.0,29.97,NNW,348,0.0,0.0,89,0.00,,,0.00,VWS V13.01,2012-07-14 07:45:00,
2012-07-14 02:50:00,75.3,71.9,29.97,NNW,348,0.0,0.0,89,0.00,,,0.00,VWS V13.01,2012-07-14 07:50:00,
2012-07-14 02:55:00,75.3,71.9,29.97,NNW,348,0.0,0.0,89,0.00,,,0.00,VWS V13.01,2012-07-14 07:55:00,
2012-07-14 03:00:00,75.3,72.2,29.97,NNW,348,0.0,0.0,90,0.00,,,0.00,VWS V13.01,2012-07-14 08:00:00,
2012-07-14 03:05:00,75.3,72.2,29.97,NNW,348,0.0,0.0,90,0.00,,,0.00,VWS V13.01,2012-07-14 08:05:00,
2012-07-14 03:10:00,75.5,72.4,29.97,NNW,348,0.0,0.0,90,0.00,,,0.00,VWS V13.01,2012-07-14 08:10:00,
2012-07-14 03:15:00,75.7,72.5,29.97,NNW,348,0.0,0.0,90,0.00,,,0.00,VWS V13.01,2012-07-14 08:15:00,
2012-07-14 03:20:00,75.7,72.2,29.97,NNW,348,0.0,0.0,89,0.00,,,0.00,VWS V13.01,2012-07-14 08:20:00,
2012-07-14 03:25:00,75.7,72.2,29.97,NNW,348,0.0,0.0,89,0.00,,,0.00,VWS V13.01,2012-07-14 08:25:00,
2012-07-14 03:30:00,75.7,71.9,29.97,NNW,348,0.0,0.0,88,0.00,,,0.00,VWS V13.01,2012-07-14 08:30:00,
2012-07-14 03:35:00,75.7,71.9,29.97,NNW,348,0.0,0.0,88,0.00,,,0.00,VWS V13.01,2012-07-14 08:35:00,
2012-07-14 03:40:00,75.7,71.9,29.97,NNW,348,0.0,0.0,88,0.00,,,0.00,VWS V13.01,2012-07-14 08:40:00,
2012-07-14 03:45:00,75.5,71.7,29.97,NNW,348,0.0,0.0,88,0.00,,,0.00,VWS V13.01,2012-07-14 08:45:00,
2012-07-14 03:50:00,75.5,71.7,29.97,NNW,348,0.0,0.0,88,0.00,,,0.00,VWS V13.01,2012-07-14 08:50:00,
2012-07-14 03:55:00,75.3,71.5,29.97,NNW,348,0.0,0.0,88,0.00,,,0.00,VWS V13.01,2012-07-14 08:55:00,
2012-07-14 04:00:00,75.3,71.9,29.97,NNW,348,0.0,0.0,89,0.00,,,0.00,VWS V13.01,2012-07-14 09:00:00,
2012-07-14 04:05:00,75.1,71.7,29.97,NNW,348,0.0,0.0,89,0.00,,,0.00,VWS V13.01,2012-07-14 09:05:00,
2012-07-14 04:10:00,74.8,71.3,29.97,NNW,348,0.0,0.0,89,0.00,,,0.00,VWS V13.01,2012-07-14 09:10:00,
2012-07-14 04:15:00,74.8,71.7,29.97,NNW,348,0.0,0.0,90,0.00,,,0.00,VWS V13.01,2012-07-14 09:15:00,
2012-07-14 04:20:00,74.6,71.8,29.97,ENE,60,0.0,0.0,91,0.00,,,0.00,VWS V13.01,2012-07-14 09:20:00,
2012-07-14 04:25:00,74.4,71.9,29.97,ENE,60,0.0,0.0,92,0.00,,,0.00,VWS V13.01,2012-07-14 09:25:00,
2012-07-14 04:30:00,74.4,72.3,29.97,ENE,60,0.0,0.0,93,0.00,,,0.00,VWS V13.01,2012-07-14 09:30:00,
2012-07-14 04:35:00,74.2,72.4,29.97,ENE,60,0.0,0.0,94,0.00,,,0.00,VWS V13.01,2012-07-14 09:35:00,
2012-07-14 04:40:00,74.2,72.4,29.97,ENE,60,0.0,0.0,94,0.00,,,0.00,VWS V13.01,2012-07-14 09:40:00,
2012-07-14 04:45:00,74.2,72.7,29.97,ENE,60,0.0,0.0,95,0.00,,,0.00,VWS V13.01,2012-07-14 09:45:00,
2012-07-14 04:50:00,74.2,73.0,29.97,ENE,60,0.0,0.0,96,0.00,,,0.00,VWS V13.01,2012-07-14 09:50:00,
2012-07-14 04:55:00,74.2,73.3,29.97,ENE,60,0.0,0.0,97,0.00,,,0.00,VWS V13.01,2012-07-14 09:55:00,
2012-07-14 05:00:00,74.2,73.3,29.97,ENE,60,0.0,0.0,97,0.00,,,0.00,VWS V13.01,2012-07-14 10:00:00,
2012-07-14 05:05:00,74.4,73.8,29.97,ENE,60,0.0,0.0,98,0.00,,,0.00,VWS V13.01,2012-07-14 10:05:00,
2012-07-14 05:10:00,74.4,73.8,29.97,ENE,60,0.0,0.0,98,0.00,,,0.00,VWS V13.01,2012-07-14 10:10:00,
2012-07-14 05:15:00,74.4,73.8,30.00,ENE,60,0.0,0.0,98,0.00,,,0.00,VWS V13.01,2012-07-14 10:15:00,
2012-07-14 05:20:00,74.2,73.6,30.00,ENE,60,0.0,0.0,98,0.00,,,0.00,VWS V13.01,2012-07-14 10:20:00,
2012-07-14 05:25:00,74.2,73.6,30.00,ENE,60,0.0,0.0,98,0.00,,,0.00,VWS V13.01,2012-07-14 10:25:00,
2012-07-14 05:30:00,74.2,73.6,30.00,ENE,60,0.0,0.0,98,0.00,,,0.00,VWS V13.01,2012-07-14 10:30:00,
2012-07-14 05:35:00,74.2,73.6,30.00,ENE,60,0.0,0.0,98,0.00,,,0.00,VWS V13.01,2012-07-14 10:35:00,
2012-07-14 05:40:00,74.4,73.8,30.00,ENE,60,0.0,0.0,98,0.00,,,0.00,VWS V13.01,2012-07-14 10:40:00,
2012-07-14 05:45:00,74.4,73.8,30.00,ENE,60,0.0,0.0,98,0.00,,,0.00,VWS V13.01,2012-07-14 10:45:00,
2012-07-14 05:50:00,74.4,73.8,30.00,ENE,60,0.0,0.0,98,0.00,,,0.00,VWS V13.01,2012-07-14 10:50:00,
2012-07-14 05:55:00,74.2,73.6,30.00,ENE,60,0.0,0.0,98,0.00,,,0.00,VWS V13.01,2012-07-14 10:55:00,
2012-07-14 06:00:00,74.2,73.6,30.00,ENE,60,0.0,0.0,98,0.00,,,0.00,VWS V13.01,2012-07-14 11:00:00,
2012-07-14 06:05:00,74.2,73.6,30.00,ENE,60,0.0,0.0,98,0.00,,,0.00,VWS V13.01,2012-07-14 11:05:00,
2012-07-14 06:10:00,74.2,73.6,30.00,ENE,60,0.0,0.0,98,0.00,,,0.00,VWS V13.01,2012-07-14 11:10:00,
2012-07-14 06:15:00,74.1,73.5,30.00,ENE,60,0.0,0.0,98,0.00,,,0.00,VWS V13.01,2012-07-14 11:15:00,
2012-07-14 06:20:00,74.1,73.5,30.00,ENE,60,0.0,0.0,98,0.00,,,0.00,VWS V13.01,2012-07-14 11:20:00,
2012-07-14 06:25:00,74.1,73.5,30.00,ENE,62,0.0,0.0,98,0.00,,,0.00,VWS V13.01,2012-07-14 11:25:00,
2012-07-14 06:30:00,74.1,73.5,30.00,ENE,70,0.0,0.0,98,0.00,,,0.00,VWS V13.01,2012-07-14 11:30:00,
2012-07-14 06:35:00,74.1,73.8,30.00,ENE,63,0.0,0.0,99,0.00,,,0.00,VWS V13.01,2012-07-14 11:35:00,
2012-07-14 06:40:00,74.2,73.9,30.00,NNE,31,0.0,0.0,99,0.00,,,0.00,VWS V13.01,2012-07-14 11:40:00,
2012-07-14 06:45:00,74.2,73.9,30.00,NNE,31,0.0,0.0,99,0.00,,,0.00,VWS V13.01,2012-07-14 11:45:00,
2012-07-14 06:49:00,74.4,74.1,30.00,North,358,0.0,0.0,99,0.00,,,0.00,VWS V13.01,2012-07-14 11:49:00,
2012-07-14 06:54:00,74.6,74.3,30.00,North,358,0.0,0.0,99,0.00,,,0.00,VWS V13.01,2012-07-14 11:54:00,
2012-07-14 06:59:00,74.6,74.3,30.03,North,358,0.0,0.0,99,0.00,,,0.00,VWS V13.01,2012-07-14 11:59:00,
2012-07-14 07:05:00,74.6,74.0,30.03,NNE,33,0.0,0.0,98,0.00,,,0.00,VWS V13.01,2012-07-14 12:05:00,
2012-07-14 07:10:00,74.8,74.2,30.03,NE,34,0.0,0.0,98,0.00,,,0.00,VWS V13.01,2012-07-14 12:10:00,
2012-07-14 07:15:00,75.0,74.1,30.03,NE,34,0.0,0.0,97,0.00,,,0.00,VWS V13.01,2012-07-14 12:15:00,
2012-07-14 07:20:00,75.1,74.2,30.03,NE,35,0.0,0.0,97,0.00,,,0.00,VWS V13.01,2012-07-14 12:20:00,
2012-07-14 07:25:00,75.3,74.1,30.03,NE,35,0.0,0.0,96,0.00,,,0.00,VWS V13.01,2012-07-14 12:25:00,
2012-07-14 07:29:00,75.5,74.0,30.03,North,354,0.0,0.0,95,0.00,,,0.00,VWS V13.01,2012-07-14 12:29:00,
2012-07-14 07:34:00,75.9,74.0,30.03,North,8,0.0,0.0,94,0.00,,,0.00,VWS V13.01,2012-07-14 12:34:00,
2012-07-14 07:39:00,76.2,73.4,30.03,East,80,3.1,3.6,91,0.00,,,0.00,VWS V13.01,2012-07-14 12:39:00,
2012-07-14 07:44:00,76.8,73.3,30.03,ENE,66,0.0,0.0,89,0.00,,,0.00,VWS V13.01,2012-07-14 12:44:00,
2012-07-14 07:50:00,77.1,72.6,30.03,NE,51,0.0,0.0,86,0.00,,,0.00,VWS V13.01,2012-07-14 12:50:00,
2012-07-14 07:54:00,77.7,73.1,30.03,ENE,72,0.0,0.0,86,0.00,,,0.00,VWS V13.01,2012-07-14 12:54:00,
2012-07-14 07:59:00,78.2,71.2,30.03,NE,43,3.6,5.4,79,0.00,,,0.00,VWS V13.01,2012-07-14 12:59:00,
2012-07-14 08:04:00,78.7,71.3,30.03,ENE,65,2.7,2.7,78,0.00,,,0.00,VWS V13.01,2012-07-14 13:04:00,
2012-07-14 08:09:00,79.1,70.9,30.03,NE,34,2.7,4.9,76,0.00,,,0.00,VWS V13.01,2012-07-14 13:09:00,
2012-07-14 08:14:00,79.3,70.7,30.03,ENE,69,0.0,3.1,75,0.00,,,0.00,VWS V13.01,2012-07-14 13:14:00,
2012-07-14 08:19:00,79.5,70.4,30.03,NNE,26,2.7,3.1,74,0.00,,,0.00,VWS V13.01,2012-07-14 13:19:00,
2012-07-14 08:24:00,79.6,70.6,30.03,NE,40,2.2,3.1,74,0.00,,,0.00,VWS V13.01,2012-07-14 13:24:00,
2012-07-14 08:29:00,80.0,70.2,30.03,NNE,12,2.7,3.1,72,0.00,,,0.00,VWS V13.01,2012-07-14 13:29:00,
2012-07-14 08:34:00,80.4,70.1,30.03,NE,43,0.0,0.0,71,0.00,,,0.00,VWS V13.01,2012-07-14 13:34:00,
2012-07-14 08:39:00,80.7,70.4,30.03,ESE,118,2.7,3.1,71,0.00,,,0.00,VWS V13.01,2012-07-14 13:39:00,
2012-07-14 08:44:00,80.9,69.8,30.03,ENE,68,2.2,3.1,69,0.00,,,0.00,VWS V13.01,2012-07-14 13:44:00,
2012-07-14 08:49:00,81.1,70.0,30.03,East,97,0.0,0.0,69,0.00,,,0.00,VWS V13.01,2012-07-14 13:49:00,
2012-07-14 08:54:00,81.3,68.8,30.03,ESE,105,4.0,4.9,66,0.00,,,0.00,VWS V13.01,2012-07-14 13:54:00,
2012-07-14 08:59:00,81.3,68.8,30.06,NE,36,4.0,4.0,66,0.00,,,0.00,VWS V13.01,2012-07-14 13:59:00,
2012-07-14 09:04:00,81.4,69.0,30.06,NE,49,4.5,5.4,66,0.00,,,0.00,VWS V13.01,2012-07-14 14:04:00,
2012-07-14 09:09:00,81.4,69.0,30.06,ENE,60,3.1,3.1,66,0.00,,,0.00,VWS V13.01,2012-07-14 14:09:00,
2012-07-14 09:14:00,81.4,69.0,30.06,NE,50,2.2,2.7,66,0.00,,,0.00,VWS V13.01,2012-07-14 14:14:00,
2012-07-14 09:19:00,81.3,68.4,30.06,ENE,60,3.6,3.6,65,0.00,,,0.00,VWS V13.01,2012-07-14 14:19:00,
2012-07-14 09:24:00,81.3,68.8,30.06,NE,50,4.0,4.0,66,0.00,,,0.00,VWS V13.01,2012-07-14 14:24:00,
2012-07-14 09:29:00,81.1,68.7,30.06,ENE,75,0.0,3.1,66,0.00,,,0.00,VWS V13.01,2012-07-14 14:29:00,
2012-07-14 09:34:00,81.3,69.3,30.06,East,79,3.1,3.1,67,0.00,,,0.00,VWS V13.01,2012-07-14 14:34:00,
2012-07-14 09:39:00,81.6,69.2,30.06,East,81,0.0,4.0,66,0.00,,,0.00,VWS V13.01,2012-07-14 14:39:00,
2012-07-14 09:44:00,81.6,68.3,30.06,ENE,65,4.0,5.4,64,0.00,,,0.00,VWS V13.01,2012-07-14 14:44:00,
2012-07-14 09:49:00,81.8,68.4,30.06,East,97,3.1,4.0,64,0.00,,,0.00,VWS V13.01,2012-07-14 14:49:00,
2012-07-14 09:54:00,82.0,68.6,30.06,ENE,73,0.0,3.6,64,0.00,,,0.00,VWS V13.01,2012-07-14 14:54:00,
2012-07-14 09:59:00,82.2,68.3,30.06,ENE,67,3.1,3.1,63,0.00,,,0.00,VWS V13.01,2012-07-14 14:59:00,
2012-07-14 10:04:00,82.5,68.2,30.06,North,7,0.0,4.0,62,0.00,,,0.00,VWS V13.01,2012-07-14 15:04:00,
2012-07-14 10:09:00,82.9,68.1,30.06,NNE,31,3.1,5.4,61,0.00,,,0.00,VWS V13.01,2012-07-14 15:09:00,
2012-07-14 10:14:00,82.7,68.4,30.06,East,95,0.0,2.2,62,0.00,,,0.00,VWS V13.01,2012-07-14 15:14:00,
2012-07-14 10:19:00,82.9,67.6,30.06,ENE,68,3.6,3.6,60,0.00,,,0.00,VWS V13.01,2012-07-14 15:19:00,
2012-07-14 10:24:00,82.9,67.6,30.06,SSE,147,0.0,0.0,60,0.00,,,0.00,VWS V13.01,2012-07-14 15:24:00,
2012-07-14 10:29:00,83.1,67.8,30.06,East,100,2.7,2.7,60,0.00,,,0.00,VWS V13.01,2012-07-14 15:29:00,
2012-07-14 10:34:00,83.2,67.9,30.06,SSE,147,0.0,0.0,60,0.00,,,0.00,VWS V13.01,2012-07-14 15:34:00,
2012-07-14 10:39:00,83.6,68.3,30.06,East,80,0.0,0.0,60,0.00,,,0.00,VWS V13.01,2012-07-14 15:39:00,
2012-07-14 10:44:00,84.5,67.6,30.06,East,99,4.0,4.9,57,0.00,,,0.00,VWS V13.01,2012-07-14 15:44:00,
2012-07-14 10:49:00,84.3,67.4,30.06,ENE,60,2.7,3.1,57,0.00,,,0.00,VWS V13.01,2012-07-14 15:49:00,
2012-07-14 10:54:00,84.5,67.1,30.06,NE,55,2.2,2.7,56,0.00,,,0.00,VWS V13.01,2012-07-14 15:54:00,
2012-07-14 10:59:00,84.7,66.7,30.03,ESE,121,0.0,0.0,55,0.00,,,0.00,VWS V13.01,2012-07-14 15:59:00,
2012-07-14 11:04:00,85.0,66.6,30.03,NNE,20,0.0,0.0,54,0.00,,,0.00,VWS V13.01,2012-07-14 16:04:00,
2012-07-14 11:09:00,85.4,66.3,30.03,ESE,116,3.1,3.1,53,0.00,,,0.00,VWS V13.01,2012-07-14 16:09:00,
2012-07-14 11:14:00,85.4,66.3,30.03,SE,135,6.3,6.3,53,0.00,,,0.00,VWS V13.01,2012-07-14 16:14:00,
2012-07-14 11:19:00,85.0,66.6,30.03,SE,129,2.7,2.7,54,0.00,,,0.00,VWS V13.01,2012-07-14 16:19:00,
2012-07-14 11:24:00,85.2,66.7,30.03,SE,124,0.0,0.0,54,0.00,,,0.00,VWS V13.01,2012-07-14 16:24:00,
2012-07-14 11:29:00,85.8,66.1,30.03,SSE,152,3.1,3.1,52,0.00,,,0.00,VWS V13.01,2012-07-14 16:29:00,
2012-07-14 11:34:00,86.3,66.6,30.03,ENE,61,0.0,0.0,52,0.00,,,0.00,VWS V13.01,2012-07-14 16:34:00,
2012-07-14 11:39:00,86.7,65.8,30.03,East,82,2.7,3.6,50,0.00,,,0.00,VWS V13.01,2012-07-14 16:39:00,
2012-07-14 11:44:00,86.7,66.4,30.03,ENE,66,4.0,4.0,51,0.00,,,0.00,VWS V13.01,2012-07-14 16:44:00,
2012-07-14 11:49:00,87.0,66.2,30.06,East,84,4.9,5.4,50,0.00,,,0.00,VWS V13.01,2012-07-14 16:49:00,
2012-07-14 11:54:00,86.8,66.6,30.06,SE,133,4.0,4.0,51,0.00,,,0.00,VWS V13.01,2012-07-14 16:54:00,
2012-07-14 11:59:00,87.0,66.2,30.06,East,90,0.0,0.0,50,0.00,,,0.00,VWS V13.01,2012-07-14 16:59:00,
2012-07-14 12:04:00,86.8,66.0,30.06,ENE,57,5.8,5.8,50,0.00,,,0.00,VWS V13.01,2012-07-14 17:04:00,
2012-07-14 12:09:00,87.4,65.3,30.06,ESE,111,5.8,5.8,48,0.00,,,0.00,VWS V13.01,2012-07-14 17:09:00,
2012-07-14 12:14:00,87.7,65.0,30.06,ENE,63,3.6,3.6,47,0.00,,,0.00,VWS V13.01,2012-07-14 17:14:00,
2012-07-14 12:19:00,88.3,65.5,30.06,ESE,104,6.3,6.3,47,0.00,,,0.00,VWS V13.01,2012-07-14 17:19:00,
2012-07-14 12:24:00,88.1,66.6,30.06,East,94,3.6,4.0,49,0.00,,,0.00,VWS V13.01,2012-07-14 17:24:00,
2012-07-14 12:29:00,88.3,64.9,30.06,NNE,29,4.9,5.4,46,0.00,,,0.00,VWS V13.01,2012-07-14 17:29:00,
2012-07-14 12:34:00,88.5,65.1,30.06,NNE,15,2.7,4.0,46,0.00,,,0.00,VWS V13.01,2012-07-14 17:34:00,
2012-07-14 12:39:00,88.6,64.0,30.06,NNE,25,2.7,4.9,44,0.00,,,0.00,VWS V13.01,2012-07-14 17:39:00,
2012-07-14 12:44:00,88.6,64.0,30.06,East,81,4.0,5.8,44,0.00,,,0.00,VWS V13.01,2012-07-14 17:44:00,
2012-07-14 12:49:00,88.8,64.1,30.06,NE,41,2.7,2.7,44,0.00,,,0.00,VWS V13.01,2012-07-14 17:49:00,
2012-07-14 12:54:00,88.8,61.4,30.06,North,353,7.6,7.6,40,0.00,,,0.00,VWS V13.01,2012-07-14 17:54:00,
2012-07-14 12:59:00,86.1,56.8,30.06,NW,320,8.1,11.0,37,0.00,,,0.00,VWS V13.01,2012-07-14 17:59:00,
2012-07-14 13:04:00,84.5,55.4,30.06,NNE,33,3.1,7.6,37,0.00,,,0.00,VWS V13.01,2012-07-14 18:04:00,
2012-07-14 13:09:00,82.7,56.0,30.06,North,355,4.0,6.7,40,0.00,,,0.00,VWS V13.01,2012-07-14 18:09:00,
2012-07-14 13:14:00,79.5,59.8,30.06,WNW,300,4.9,8.3,51,0.00,,,0.00,VWS V13.01,2012-07-14 18:14:00,
2012-07-14 13:19:00,75.9,60.5,30.09,WNW,290,0.0,2.7,59,0.04,,,0.04,VWS V13.01,2012-07-14 18:19:00,
2012-07-14 13:24:00,74.4,63.2,30.09,East,86,0.0,2.7,68,0.04,,,0.04,VWS V13.01,2012-07-14 18:24:00,
2012-07-14 13:29:00,73.3,63.0,30.09,SSW,206,3.1,3.1,70,0.04,,,0.04,VWS V13.01,2012-07-14 18:29:00,
2012-07-14 13:34:00,72.8,64.0,30.06,SE,143,3.1,3.6,74,0.04,,,0.04,VWS V13.01,2012-07-14 18:34:00,
2012-07-14 13:39:00,72.6,65.0,30.06,SE,143,3.1,3.6,77,0.08,,,0.08,VWS V13.01,2012-07-14 18:39:00,
2012-07-14 13:44:00,72.4,65.6,30.06,SE,143,0.0,0.0,79,0.08,,,0.08,VWS V13.01,2012-07-14 18:44:00,
2012-07-14 13:49:00,72.3,66.1,30.06,NNE,14,3.6,4.0,81,0.08,,,0.08,VWS V13.01,2012-07-14 18:49:00,
2012-07-14 13:54:00,72.6,67.5,30.06,WSW,256,0.0,0.0,84,0.08,,,0.08,VWS V13.01,2012-07-14 18:54:00,
2012-07-14 13:59:00,73.0,68.2,30.06,WNW,287,3.6,4.9,85,0.08,,,0.08,VWS V13.01,2012-07-14 18:59:00,
2012-07-14 14:04:00,73.2,68.4,30.03,NW,304,0.0,0.0,85,0.08,,,0.08,VWS V13.01,2012-07-14 19:04:00,
2012-07-14 14:09:00,73.5,68.7,30.03,NW,305,0.0,0.0,85,0.08,,,0.08,VWS V13.01,2012-07-14 19:09:00,
2012-07-14 14:14:00,73.7,67.5,30.03,ENE,60,0.0,0.0,81,0.08,,,0.08,VWS V13.01,2012-07-14 19:14:00,
2012-07-14 14:19:00,74.2,69.4,30.03,ENE,71,0.0,0.0,85,0.04,,,0.08,VWS V13.01,2012-07-14 19:19:00,
2012-07-14 14:24:00,74.4,69.6,30.03,East,100,3.1,3.1,85,0.04,,,0.08,VWS V13.01,2012-07-14 19:24:00,
2012-07-14 14:29:00,74.4,67.8,30.03,ESE,102,0.0,2.2,80,0.04,,,0.08,VWS V13.01,2012-07-14 19:29:00,
2012-07-14 14:34:00,74.6,68.0,30.03,ESE,103,0.0,0.0,80,0.04,,,0.08,VWS V13.01,2012-07-14 19:34:00,
2012-07-14 14:39:00,74.8,68.2,30.03,ESE,103,0.0,0.0,80,0.00,,,0.08,VWS V13.01,2012-07-14 19:39:00,
2012-07-14 14:44:00,75.0,68.0,30.03,West,263,0.0,3.1,79,0.00,,,0.08,VWS V13.01,2012-07-14 19:44:00,
2012-07-14 14:49:00,75.3,69.8,30.00,WNW,296,3.6,4.0,83,0.00,,,0.08,VWS V13.01,2012-07-14 19:49:00,
2012-07-14 14:54:00,75.7,69.4,30.00,West,269,3.6,4.9,81,0.00,,,0.08,VWS V13.01,2012-07-14 19:54:00,
2012-07-14 14:59:00,75.5,69.6,30.00,WNW,294,3.1,3.1,82,0.00,,,0.08,VWS V13.01,2012-07-14 19:59:00,
2012-07-14 15:04:00,75.3,67.6,30.03,NW,304,3.6,5.8,77,0.00,,,0.08,VWS V13.01,2012-07-14 20:04:00,
2012-07-14 15:09:00,75.7,67.6,30.03,North,355,0.0,2.7,76,0.00,,,0.08,VWS V13.01,2012-07-14 20:09:00,
2012-07-14 15:14:00,76.4,68.3,30.03,ESE,116,4.5,4.5,76,0.00,,,0.08,VWS V13.01,2012-07-14 20:14:00,
2012-07-14 15:19:00,76.8,68.6,30.03,East,81,0.0,4.0,76,0.00,,,0.08,VWS V13.01,2012-07-14 20:19:00,
2012-07-14 15:24:00,76.9,66.4,30.03,SSE,164,0.0,0.0,70,0.00,,,0.08,VWS V13.01,2012-07-14 20:24:00,
2012-07-14 15:28:00,77.3,65.1,30.03,WNW,299,2.7,3.6,66,0.00,,,0.08,VWS V13.01,2012-07-14 20:28:00,
2012-07-14 15:33:00,77.7,65.4,30.00,WNW,299,0.0,0.0,66,0.00,,,0.08,VWS V13.01,2012-07-14 20:33:00,
2012-07-14 15:38:00,77.7,63.6,30.00,WSW,251,0.0,3.1,62,0.00,,,0.08,VWS V13.01,2012-07-14 20:38:00,
2012-07-14 15:43:00,77.7,64.5,30.00,SSE,158,2.2,2.2,64,0.00,,,0.08,VWS V13.01,2012-07-14 20:43:00,
2012-07-14 15:48:00,77.8,64.2,29.97,WSW,237,0.0,0.0,63,0.00,,,0.08,VWS V13.01,2012-07-14 20:48:00,
2012-07-14 15:53:00,77.8,63.3,29.97,WSW,248,2.2,3.1,61,0.00,,,0.08,VWS V13.01,2012-07-14 20:53:00,
2012-07-14 15:58:00,77.8,63.8,29.97,SW,226,0.0,2.2,62,0.00,,,0.08,VWS V13.01,2012-07-14 20:58:00,
2012-07-14 16:03:00,78.0,62.1,30.00,SW,226,0.0,0.0,58,0.00,,,0.08,VWS V13.01,2012-07-14 21:03:00,
2012-07-14 16:08:00,78.2,60.7,30.00,SW,233,2.7,3.6,55,0.00,,,0.08,VWS V13.01,2012-07-14 21:08:00,
2012-07-14 16:13:00,78.6,61.6,30.00,WNW,296,0.0,2.7,56,0.00,,,0.08,VWS V13.01,2012-07-14 21:13:00,
2012-07-14 16:18:00,78.9,60.3,30.00,WNW,293,3.1,3.1,53,0.00,,,0.08,VWS V13.01,2012-07-14 21:18:00,
2012-07-14 16:23:00,79.1,61.0,30.00,SE,125,2.2,2.7,54,0.00,,,0.08,VWS V13.01,2012-07-14 21:23:00,
2012-07-14 16:28:00,79.1,63.1,30.00,East,85,2.2,2.7,58,0.00,,,0.08,VWS V13.01,2012-07-14 21:28:00,
2012-07-14 16:33:00,78.9,61.9,30.00,SSE,158,0.0,2.7,56,0.00,,,0.08,VWS V13.01,2012-07-14 21:33:00,
2012-07-14 16:38:00,78.9,60.9,30.00,SSW,203,2.7,2.7,54,0.00,,,0.08,VWS V13.01,2012-07-14 21:38:00,
2012-07-14 16:43:00,79.1,63.1,30.00,SW,235,3.1,4.0,58,0.00,,,0.08,VWS V13.01,2012-07-14 21:43:00,
2012-07-14 16:48:00,79.1,63.6,30.00,WSW,242,6.3,6.3,59,0.00,,,0.08,VWS V13.01,2012-07-14 21:48:00,
2012-07-14 16:53:00,78.9,62.9,30.00,WNW,285,4.0,5.8,58,0.00,,,0.08,VWS V13.01,2012-07-14 21:53:00,
2012-07-14 16:58:00,78.7,63.2,30.00,WSW,240,3.6,4.9,59,0.00,,,0.08,VWS V13.01,2012-07-14 21:58:00,
2012-07-14 17:03:00,78.9,63.9,30.00,SSW,204,0.0,2.7,60,0.00,,,0.08,VWS V13.01,2012-07-14 22:03:00,
2012-07-14 17:08:00,78.9,63.4,30.00,WSW,256,2.7,3.1,59,0.00,,,0.08,VWS V13.01,2012-07-14 22:08:00,
2012-07-14 17:13:00,78.9,63.9,30.00,SSW,209,2.2,3.1,60,0.00,,,0.08,VWS V13.01,2012-07-14 22:13:00,
2012-07-14 17:18:00,78.7,63.2,30.00,SW,235,2.7,3.6,59,0.00,,,0.08,VWS V13.01,2012-07-14 22:18:00,
2012-07-14 17:23:00,78.9,62.9,30.00,WSW,255,2.7,2.7,58,0.00,,,0.08,VWS V13.01,2012-07-14 22:23:00,
2012-07-14 17:28:00,78.9,61.9,30.00,WSW,258,0.0,0.0,56,0.00,,,0.08,VWS V13.01,2012-07-14 22:28:00,
2012-07-14 17:33:00,79.1,61.6,29.97,West,259,0.0,0.0,55,0.00,,,0.08,VWS V13.01,2012-07-14 22:33:00,
2012-07-14 17:38:00,79.6,62.1,29.97,SW,225,0.0,0.0,55,0.00,,,0.08,VWS V13.01,2012-07-14 22:38:00,
2012-07-14 17:43:00,79.8,61.7,29.97,NE,53,2.7,2.7,54,0.00,,,0.08,VWS V13.01,2012-07-14 22:43:00,
2012-07-14 17:48:00,80.2,62.6,29.97,NE,52,0.0,0.0,55,0.00,,,0.08,VWS V13.01,2012-07-14 22:48:00,
2012-07-14 17:53:00,80.5,62.4,29.97,ESE,117,2.2,2.2,54,0.00,,,0.08,VWS V13.01,2012-07-14 22:53:00,
2012-07-14 17:58:00,80.4,61.2,29.97,WSW,250,0.0,0.0,52,0.00,,,0.08,VWS V13.01,2012-07-14 22:58:00,
2012-07-14 18:03:00,80.4,61.7,29.97,WSW,250,0.0,0.0,53,0.00,,,0.08,VWS V13.01,2012-07-14 23:03:00,
2012-07-14 18:08:00,80.5,61.8,29.97,WSW,250,0.0,0.0,53,0.00,,,0.08,VWS V13.01,2012-07-14 23:08:00,
2012-07-14 18:13:00,80.5,61.8,29.97,SE,134,0.0,2.7,53,0.00,,,0.08,VWS V13.01,2012-07-14 23:13:00,
2012-07-14 18:18:00,80.4,62.2,29.97,East,88,0.0,0.0,54,0.00,,,0.08,VWS V13.01,2012-07-14 23:18:00,
2012-07-14 18:23:00,80.4,62.2,29.97,East,88,0.0,0.0,54,0.00,,,0.08,VWS V13.01,2012-07-14 23:23:00,
2012-07-14 18:28:00,80.4,62.2,29.97,East,95,0.0,0.0,54,0.00,,,0.08,VWS V13.01,2012-07-14 23:28:00,
2012-07-14 18:33:00,80.2,62.6,29.97,ESE,103,0.0,0.0,55,0.00,,,0.08,VWS V13.01,2012-07-14 23:33:00,
2012-07-14 18:38:00,80.2,62.0,29.97,ENE,66,3.6,3.6,54,0.00,,,0.08,VWS V13.01,2012-07-14 23:38:00,
2012-07-14 18:43:00,80.0,62.4,29.97,ESE,122,0.0,0.0,55,0.00,,,0.08,VWS V13.01,2012-07-14 23:43:00,
2012-07-14 18:48:00,80.0,61.9,29.97,SE,136,0.0,0.0,54,0.00,,,0.08,VWS V13.01,2012-07-14 23:48:00,
2012-07-14 18:53:00,80.0,62.4,29.97,WSW,239,2.7,2.7,55,0.00,,,0.08,VWS V13.01,2012-07-14 23:53:00,
2012-07-14 18:58:00,79.8,62.7,29.97,WSW,257,2.7,2.7,56,0.00,,,0.08,VWS V13.01,2012-07-14 23:58:00,
2012-07-14 19:03:00,80.0,62.4,29.97,WSW,249,0.0,0.0,55,0.00,,,0.08,VWS V13.01,2012-07-15 00:03:00,
2012-07-14 19:08:00,80.0,62.4,29.97,WSW,249,0.0,0.0,55,0.00,,,0.08,VWS V13.01,2012-07-15 00:08:00,
2012-07-14 19:13:00,80.0,62.4,29.97,WSW,256,0.0,0.0,55,0.00,,,0.08,VWS V13.01,2012-07-15 00:13:00,
2012-07-14 19:18:00,80.0,62.4,29.97,NW,316,2.7,2.7,55,0.00,,,0.08,VWS V13.01,2012-07-15 00:18:00,
2012-07-14 19:23:00,80.0,62.4,29.97,West,272,0.0,0.0,55,0.00,,,0.08,VWS V13.01,2012-07-15 00:23:00,
2012-07-14 19:28:00,80.0,62.4,29.97,West,272,0.0,0.0,55,0.00,,,0.08,VWS V13.01,2012-07-15 00:28:00,
2012-07-14 19:33:00,80.0,63.4,29.97,West,272,0.0,0.0,57,0.00,,,0.08,VWS V13.01,2012-07-15 00:33:00,
2012-07-14 19:38:00,79.5,63.9,29.97,West,272,0.0,0.0,59,0.00,,,0.08,VWS V13.01,2012-07-15 00:38:00,
2012-07-14 19:43:00,79.1,65.0,29.97,West,273,0.0,0.0,62,0.00,,,0.08,VWS V13.01,2012-07-15 00:43:00,
2012-07-14 19:48:00,78.9,64.3,29.97,West,273,0.0,0.0,61,0.00,,,0.08,VWS V13.01,2012-07-15 00:48:00,
2012-07-14 19:53:00,78.7,63.7,29.97,West,273,0.0,0.0,60,0.00,,,0.08,VWS V13.01,2012-07-15 00:53:00,
2012-07-14 19:58:00,78.7,65.1,29.97,West,273,0.0,0.0,63,0.00,,,0.08,VWS V13.01,2012-07-15 00:58:00,
2012-07-14 20:03:00,78.6,65.4,29.97,West,273,0.0,0.0,64,0.00,,,0.08,VWS V13.01,2012-07-15 01:03:00,
2012-07-14 20:08:00,78.4,64.8,29.97,West,272,0.0,0.0,63,0.00,,,0.08,VWS V13.01,2012-07-15 01:08:00,
2012-07-14 20:13:00,78.4,64.8,29.97,West,273,0.0,0.0,63,0.00,,,0.08,VWS V13.01,2012-07-15 01:13:00,
2012-07-14 20:18:00,78.4,64.8,29.97,West,272,0.0,0.0,63,0.00,,,0.08,VWS V13.01,2012-07-15 01:18:00,
2012-07-14 20:23:00,78.2,65.0,29.97,West,272,0.0,0.0,64,0.00,,,0.08,VWS V13.01,2012-07-15 01:23:00,
2012-07-14 20:28:00,78.0,65.3,29.97,West,272,0.0,0.0,65,0.00,,,0.08,VWS V13.01,2012-07-15 01:28:00,
2012-07-14 20:33:00,77.8,65.1,29.97,West,272,0.0,0.0,65,0.00,,,0.08,VWS V13.01,2012-07-15 01:33:00,
2012-07-14 20:38:00,77.7,65.8,29.97,West,272,0.0,0.0,67,0.00,,,0.08,VWS V13.01,2012-07-15 01:38:00,
2012-07-14 20:43:00,77.5,65.2,29.97,West,272,0.0,0.0,66,0.00,,,0.08,VWS V13.01,2012-07-15 01:43:00,
2012-07-14 20:48:00,77.3,65.1,30.00,West,272,0.0,0.0,66,0.00,,,0.08,VWS V13.01,2012-07-15 01:48:00,
2012-07-14 20:53:00,77.1,65.8,30.00,West,272,0.0,0.0,68,0.00,,,0.08,VWS V13.01,2012-07-15 01:53:00,
2012-07-14 20:58:00,77.1,67.0,30.00,West,272,0.0,0.0,71,0.00,,,0.08,VWS V13.01,2012-07-15 01:58:00,
2012-07-14 21:03:00,76.9,66.4,30.00,West,272,0.0,0.0,70,0.00,,,0.08,VWS V13.01,2012-07-15 02:03:00,
2012-07-14 21:08:00,76.8,66.7,30.00,West,272,0.0,0.0,71,0.00,,,0.08,VWS V13.01,2012-07-15 02:08:00,
2012-07-14 21:13:00,76.6,67.3,30.00,West,272,0.0,0.0,73,0.00,,,0.08,VWS V13.01,2012-07-15 02:13:00,
2012-07-14 21:18:00,76.4,67.1,30.00,West,273,0.0,0.0,73,0.00,,,0.08,VWS V13.01,2012-07-15 02:18:00,
2012-07-14 21:23:00,76.2,67.3,30.00,North,360,0.0,0.0,74,0.00,,,0.08,VWS V13.01,2012-07-15 02:23:00,
2012-07-14 21:28:00,76.0,67.2,30.00,North,360,0.0,0.0,74,0.00,,,0.08,VWS V13.01,2012-07-15 02:28:00,
2012-07-14 21:33:00,75.9,67.4,30.00,North,360,0.0,0.0,75,0.00,,,0.08,VWS V13.01,2012-07-15 02:33:00,
2012-07-14 21:38:00,75.7,68.3,30.00,WNW,282,0.0,0.0,78,0.00,,,0.08,VWS V13.01,2012-07-15 02:38:00,
2012-07-14 21:43:00,75.5,68.5,30.00,WNW,282,0.0,0.0,79,0.00,,,0.08,VWS V13.01,2012-07-15 02:43:00,
2012-07-14 21:48:00,75.5,68.2,30.00,WNW,282,0.0,0.0,78,0.00,,,0.08,VWS V13.01,2012-07-15 02:48:00,
2012-07-14 21:53:00,75.5,68.2,30.00,WNW,282,0.0,0.0,78,0.00,,,0.08,VWS V13.01,2012-07-15 02:53:00,
2012-07-14 21:58:00,75.5,68.2,30.00,WNW,282,0.0,0.0,78,0.00,,,0.08,VWS V13.01,2012-07-15 02:58:00,
2012-07-14 22:03:00,75.5,68.2,30.00,West,264,0.0,0.0,78,0.00,,,0.08,VWS V13.01,2012-07-15 03:03:00,
2012-07-14 22:08:00,75.5,68.2,30.00,West,264,0.0,0.0,78,0.00,,,0.08,VWS V13.01,2012-07-15 03:08:00,
2012-07-14 22:13:00,75.5,68.2,30.00,North,354,0.0,0.0,78,0.00,,,0.08,VWS V13.01,2012-07-15 03:13:00,
2012-07-14 22:18:00,75.5,68.2,30.00,North,354,0.0,0.0,78,0.00,,,0.08,VWS V13.01,2012-07-15 03:18:00,
2012-07-14 22:23:00,75.3,68.4,30.00,North,354,0.0,0.0,79,0.00,,,0.08,VWS V13.01,2012-07-15 03:23:00,
2012-07-14 22:28:00,75.1,68.6,30.00,North,354,0.0,0.0,80,0.00,,,0.08,VWS V13.01,2012-07-15 03:28:00,
2012-07-14 22:33:00,75.0,68.7,30.00,North,354,0.0,0.0,81,0.00,,,0.08,VWS V13.01,2012-07-15 03:33:00,
2012-07-14 22:37:00,74.8,68.6,30.00,North,354,0.0,0.0,81,0.00,,,0.08,VWS V13.01,2012-07-15 03:37:00,
2012-07-14 22:42:00,74.8,68.2,30.00,North,354,0.0,0.0,80,0.00,,,0.08,VWS V13.01,2012-07-15 03:42:00,
2012-07-14 22:47:00,74.8,68.2,30.00,North,354,0.0,0.0,80,0.00,,,0.08,VWS V13.01,2012-07-15 03:47:00,
2012-07-14 22:52:00,75.0,68.7,30.00,NNE,22,0.0,0.0,81,0.00,,,0.08,VWS V13.01,2012-07-15 03:52:00,
2012-07-14 22:57:00,74.8,68.6,30.00,NNE,22,0.0,0.0,81,0.00,,,0.08,VWS V13.01,2012-07-15 03:57:00,
2012-07-14 23:00:00,74.8,68.6,30.00,NNE,22,0.0,0.0,81,0.00,,,0.08,VWS V13.01,2012-07-15 04:00:00,
2012-07-14 23:05:00,74.6,68.4,30.00,NNE,22,0.0,0.0,81,0.00,,,0.08,VWS V13.01,2012-07-15 04:05:00,
2012-07-14 23:10:00,74.6,68.8,30.00,NNE,30,0.0,0.0,82,0.00,,,0.08,VWS V13.01,2012-07-15 04:10:00,
2012-07-14 23:15:00,74.4,68.6,30.00,NNE,30,0.0,0.0,82,0.00,,,0.08,VWS V13.01,2012-07-15 04:15:00,
2012-07-14 23:20:00,74.4,68.9,30.00,NNE,30,0.0,0.0,83,0.00,,,0.08,VWS V13.01,2012-07-15 04:20:00,
2012-07-14 23:25:00,74.4,68.9,30.00,NNE,30,0.0,0.0,83,0.00,,,0.08,VWS V13.01,2012-07-15 04:25:00,
2012-07-14 23:30:00,74.6,69.1,30.00,NNE,30,0.0,0.0,83,0.00,,,0.08,VWS V13.01,2012-07-15 04:30:00,
2012-07-14 23:35:00,74.8,69.3,30.00,NNE,30,0.0,0.0,83,0.00,,,0.08,VWS V13.01,2012-07-15 04:35:00,
2012-07-14 23:40:00,74.8,69.3,30.00,NNE,30,0.0,0.0,83,0.00,,,0.08,VWS V13.01,2012-07-15 04:40:00,
2012-07-14 23:45:00,75.0,69.4,30.00,NNE,30,0.0,0.0,83,0.00,,,0.08,VWS V13.01,2012-07-15 04:45:00,
2012-07-14 23:50:00,75.0,69.4,30.00,NNE,30,0.0,0.0,83,0.00,,,0.08,VWS V13.01,2012-07-15 04:50:00,
2012-07-14 23:55:00,75.1,69.6,30.00,NNE,30,0.0,0.0,83,0.00,,,0.08,VWS V13.01,2012-07-15 04:55:00,